Weather History for KJYG - April, 2013

Change the Weather History Date:

Wednesday, April 10, 2013

  Actual Average Record
Temperature  
Mean Temperature 34 °F -  
Max Temperature 35 °F 53 °F 85 °F (1977)
Min Temperature 33 °F 32 °F 15 °F (1989)
Degree Days  
Heating Degree Days 31    
Moisture  
Dew Point 29 °F    
Average Humidity 80    
Maximum Humidity 87    
Minimum Humidity 70    
Precipitation  
Precipitation 0.21 in - - ()
Sea Level Pressure  
Sea Level Pressure 29.98 in    
Wind  
Wind Speed 14 mph (NE)    
Max Wind Speed 26 mph    
Max Gust Speed 41 mph    
Visibility 7 miles    
Events Snow    
Averages and records for this station are not official NWS values.
T = Trace of Precipitation, MM = Missing Value Source: NWS Daily Summary

Daily Weather History Graph

Daily Weather History Graph

Search for Another Location

Airport or City:

Trip Planner

Search our weather history database for the weather conditions in past years. The results will help you decide how hot, cold, wet, or windy it might be!

Date:

Astronomy

Apr. 10, 2013 Rise Set
Actual Time 6:43 AM CDT 7:56 PM CDT
Civil Twilight 6:13 AM CDT 8:26 PM CDT
Nautical Twilight 5:37 AM CDT 9:02 PM CDT
Astronomical Twilight 5:00 AM CDT 9:39 PM CDT
Moon 6:38 AM CDT (4/10) 8:35 PM CDT (4/10)
Length of Visible Light 14h 12m
Length of Day
13h 13m
New Moon, 0% of the Moon is Illuminated
Apr 10
New Moon
Apr 18
First Quarter
Apr 25
Full
May 2
Last Quarter
May 9
New

Hourly Weather History & Observations

Time (CDT) Temp. Windchill Dew Point Humidity Pressure Visibility Wind Dir Wind Speed Gust Speed Precip Events Conditions
12:14 AM 35.6 °F 26.2 °F 30.2 °F 81% 30.11 in 10.0 mi North 15.0 mph - 0.03 in   Overcast
12:35 AM 35.6 °F 24.8 °F 30.2 °F 81% 30.08 in 7.0 mi NNE 19.6 mph 24.2 mph 0.08 in   Overcast
12:52 AM 35.6 °F 23.2 °F 30.2 °F 81% 29.89 in 7.0 mi NNE 26.5 mph 41.4 mph 0.11 in   Overcast
1:15 AM 35.6 °F 25.2 °F 30.2 °F 81% 30.05 in 10.0 mi North 18.4 mph 29.9 mph N/A   Overcast
1:35 AM 35.6 °F 24.0 °F 28.4 °F 75% 30.05 in 10.0 mi North 23.0 mph 31.1 mph N/A   Overcast
1:55 AM 35.6 °F 24.0 °F 28.4 °F 75% 30.03 in 10.0 mi NNE 23.0 mph 31.1 mph N/A   Overcast
2:14 AM 33.8 °F 21.6 °F 28.4 °F 81% 30.02 in 10.0 mi NNE 23.0 mph 33.4 mph N/A   Overcast
2:35 AM 33.8 °F 22.2 °F 28.4 °F 81% 30.04 in 10.0 mi NNE 20.7 mph 26.5 mph N/A   Overcast
2:55 AM 33.8 °F 22.5 °F 28.4 °F 81% 30.06 in 10.0 mi NNE 19.6 mph 25.3 mph N/A   Overcast
3:13 AM 33.8 °F 23.2 °F 28.4 °F 81% 30.06 in 10.0 mi NNE 17.3 mph 24.2 mph N/A   Overcast
3:35 AM 33.8 °F 23.2 °F 26.6 °F 75% 30.07 in 10.0 mi NNE 17.3 mph - N/A   Overcast
7:01 AM 33.8 °F 26.4 °F 26.6 °F 75% 30.02 in 10.0 mi North 9.2 mph - N/A   Overcast
7:55 AM 33.8 °F 23.9 °F 28.4 °F 81% 30.02 in 10.0 mi NNE 15.0 mph - N/A   Overcast
8:15 AM 33.8 °F 23.2 °F 26.6 °F 75% 30.02 in 10.0 mi NNE 17.3 mph 20.7 mph N/A   Overcast
8:35 AM 33.8 °F 23.9 °F 26.6 °F 75% 30.02 in 10.0 mi NNE 15.0 mph 23.0 mph N/A   Overcast
8:55 AM 33.8 °F 24.3 °F 26.6 °F 75% 30.02 in 10.0 mi NE 13.8 mph 23.0 mph N/A   Overcast
9:14 AM 33.8 °F 23.5 °F 26.6 °F 75% 30.03 in 10.0 mi NE 16.1 mph - N/A   Overcast
9:35 AM 33.8 °F 22.8 °F 24.8 °F 70% 30.03 in 10.0 mi ENE 18.4 mph 23.0 mph N/A   Overcast
9:55 AM 33.8 °F 22.8 °F 26.6 °F 75% 30.02 in 10.0 mi ENE 18.4 mph - N/A   Overcast
10:14 AM 33.8 °F 23.2 °F 26.6 °F 75% 30.01 in 7.0 mi ENE 17.3 mph 26.5 mph N/A   Overcast
10:35 AM 33.8 °F 23.9 °F 26.6 °F 75% 30.02 in 10.0 mi ENE 15.0 mph 23.0 mph N/A   Overcast
10:55 AM 33.8 °F 22.5 °F 26.6 °F 75% 30.00 in 10.0 mi ENE 19.6 mph - N/A   Overcast
11:14 AM 33.8 °F 23.5 °F 26.6 °F 75% 29.98 in 10.0 mi NE 16.1 mph - N/A   Overcast
11:35 AM 33.8 °F 25.3 °F 26.6 °F 75% 30.00 in 10.0 mi NE 11.5 mph 18.4 mph N/A   Overcast
12:14 PM 33.8 °F 27.7 °F 26.6 °F 75% 30.03 in 10.0 mi NNE 6.9 mph - N/A   Overcast
12:35 PM 33.8 °F 27.7 °F 28.4 °F 81% 30.04 in 5.0 mi NNE 6.9 mph - 0.01 in   Overcast
12:55 PM 33.8 °F 29.6 °F 28.4 °F 81% 30.06 in 4.0 mi NNE 4.6 mph - 0.02 in   Overcast
1:14 PM 33.8 °F - 28.4 °F 81% 30.06 in 2.5 mi Calm Calm - 0.02 in   Overcast
1:35 PM 33.8 °F 27.7 °F 28.4 °F 81% 30.06 in 4.0 mi North 6.9 mph - 0.03 in   Overcast
1:55 PM 33.8 °F 27.7 °F 28.4 °F 81% 30.05 in 4.0 mi NNE 6.9 mph - 0.03 in   Overcast
2:15 PM 33.8 °F 27.7 °F 28.4 °F 81% 30.04 in 4.0 mi NNE 6.9 mph - N/A   Overcast
2:35 PM 33.8 °F 27.0 °F 28.4 °F 81% 30.04 in 7.0 mi NNE 8.1 mph - N/A   Overcast
2:55 PM 33.8 °F 27.7 °F 30.2 °F 87% 30.03 in 3.0 mi NNE 6.9 mph - N/A   Overcast
3:15 PM 33.8 °F 27.0 °F 30.2 °F 87% 30.01 in 4.0 mi NNE 8.1 mph - 0.01 in   Overcast
3:34 PM 33.8 °F 27.7 °F 30.2 °F 87% 29.99 in 4.0 mi NNE 6.9 mph - 0.01 in   Overcast
3:55 PM 35.6 °F 32.8 °F 30.2 °F 81% 30.00 in 4.0 mi NNE 3.5 mph - 0.01 in   Overcast
4:15 PM 35.6 °F 29.9 °F 30.2 °F 81% 29.99 in 5.0 mi NNE 6.9 mph - N/A   Overcast
4:35 PM 35.6 °F - 30.2 °F 81% 30.00 in 3.0 mi Calm Calm - N/A   Overcast
4:54 PM 35.6 °F 31.7 °F 30.2 °F 81% 29.99 in 2.5 mi NE 4.6 mph - N/A   Overcast
5:15 PM 35.6 °F - 30.2 °F 81% 29.98 in 5.0 mi Calm Calm - N/A   Overcast
5:35 PM 35.6 °F 30.7 °F 30.2 °F 81% 29.96 in 5.0 mi NNE 5.8 mph - N/A   Overcast
5:55 PM 35.6 °F 31.7 °F 30.2 °F 81% 29.96 in 5.0 mi NNE 4.6 mph - N/A   Haze
6:15 PM 35.6 °F 29.9 °F 30.2 °F 81% 29.95 in 5.0 mi NE 6.9 mph - N/A   Haze
6:35 PM 35.6 °F 29.9 °F 30.2 °F 81% 29.94 in 7.0 mi NE 6.9 mph - N/A   Overcast
6:55 PM 35.6 °F 29.9 °F 30.2 °F 81% 29.93 in 10.0 mi NE 6.9 mph - N/A   Overcast
7:15 PM 35.6 °F 29.9 °F 30.2 °F 81% 29.91 in 7.0 mi NE 6.9 mph - N/A   Overcast
7:35 PM 35.6 °F 29.9 °F 30.2 °F 81% 29.88 in 7.0 mi NE 6.9 mph - N/A   Overcast
7:55 PM 35.6 °F 30.7 °F 30.2 °F 81% 29.89 in 10.0 mi NE 5.8 mph - N/A   Overcast
8:15 PM 35.6 °F 31.7 °F 30.2 °F 81% 29.89 in 10.0 mi NE 4.6 mph - N/A   Overcast
8:35 PM 35.6 °F 29.2 °F 30.2 °F 81% 29.88 in 10.0 mi NE 8.1 mph - N/A   Overcast
8:55 PM 35.6 °F 29.2 °F 30.2 °F 81% 29.89 in 3.0 mi ENE 8.1 mph - N/A   Overcast
9:15 PM 35.6 °F 29.2 °F 30.2 °F 81% 29.89 in 2.5 mi NE 8.1 mph - 0.01 in   Overcast
9:35 PM 35.6 °F 29.2 °F 30.2 °F 81% 29.89 in 2.5 mi ENE 8.1 mph - 0.02 in   Overcast
9:55 PM 35.6 °F 28.0 °F 30.2 °F 81% 29.88 in 2.5 mi ENE 10.4 mph - 0.02 in   Overcast
10:15 PM 35.6 °F 29.2 °F 30.2 °F 81% 29.88 in 2.5 mi ENE 8.1 mph - 0.01 in Snow Light Snow
10:35 PM 35.6 °F 28.6 °F 32.0 °F 87% 29.86 in 2.5 mi ENE 9.2 mph - 0.01 in   Overcast
10:55 PM 35.6 °F 27.5 °F 32.0 °F 87% 29.84 in 3.0 mi ENE 11.5 mph - 0.01 in   Overcast
11:15 PM 35.6 °F 27.1 °F 32.0 °F 87% 29.83 in 3.0 mi ENE 12.7 mph - 0.01 in   Overcast
11:34 PM 35.6 °F 28.0 °F 32.0 °F 87% 29.83 in 3.0 mi ENE 10.4 mph - 0.01 in   Overcast
11:55 PM 35.6 °F 29.9 °F 30.2 °F 81% 29.83 in 2.5 mi ENE 6.9 mph - 0.01 in   Overcast